COSMOS 249 DEB *, 3679

Orbit data source: Space-Track

COSMOS 249 DEB *, 3679 is space debris in LEO originally from a launch on Sun, 20 Oct 1968 UTC launched from the Tyuratam Missile And Space Complex (TTMTR). Debris objects in space refer to the collection of defunct objects orbiting the Earth. Examples of debris include non-operational satellites, rocket bodies, and fragments generated from explosions, collisions, or faulty payload assembly.

Loading next visibility...
COSMOS 249 DEB * details
Identifier
3679, 1968-091AE
Orbit
LEO
Last TLE update1 day ago
Origin
Flag of CISPKO (CIS)
ManufacturerUnknown
MissionSpacecraft
Bus & MotorUnknown
MassUnknown
Launch date (UTC)
1968-10-20 (56 years ago)
Launch vehicleUnknown
Launch site
Tyuratam Missile And Space Complex (TTMTR)
Object type
Payload
Rocket body
Debris
Shape & HBRUnknown
Radar Cross SectionSmall (<0.1 m²)

Expand to show TLE details & history

TLE from 1 day ago
0 COSMOS 249 DEB *
1 03679U 68091AE  24360.34386325  .00021248  00000-0  44583-2 0  9991
2 03679  62.7467  88.8805 0553302 162.3933 199.7171 13.93286281709117
Epoch: 2024-12-25T08:15Z
Definitive object data (Epoch: 2024-12-25T08:15:09.784Z)
Latitude-0.00009°
Longitude-129.24928°
Altitude1,301.269 km
Speed7.015 km/s
True Right ascension05h 55m 31s
True Declination0° 00' 00"
Sunlit
Object was in full shadow at TLE epoch
Visualization TLE readout
Latitude-0.56582°
Longitude47.85325°
Altitude532.912 km
Speed7.795 km/s
Apparent Right ascension19h 34m 14s
Apparent Declination-22° 49' 16"
Sunlit
Object is in daylight
Visualization observer readout
Local Sidereal Time10:17:19
Azimuth75.97° E
Elevation-51.651°
Doppler factor1
Orbital elements
Apogee altitude1,319.604 km
Perigee altitude512.43 km
Semi-major axis7,294.154 km
Eccentricity0.0553302
Inclination62.7467°
RAAN88.8805°
Arg. of periapsis162.3933°
True anomaly197.70946°
Mean anomaly199.7171°
Eccentric anomaly198.70066°
Mean motion3.48402 °/min
BSTAR0.0044583
Orbital period103.33 mins
Loading maneuver chart data...

COSMOS 249 DEB * Visibility forecast

Observer location: undefined°, undefined

Span
Click to sort rows by Start time (UTC) header in descending order
Start Az.
Max El. time (UTC)
Max El. Az.
Max El.
End time (UTC)
End Az.
7 mins2024-12-26 15:49:03.729Z342.589° N2024-12-26 15:53:03.729Z59.227° ENE29.001°2024-12-26 15:56:03.729Z111.865° ESE
4 mins2024-12-26 17:37:03.729Z280.412° WNW2024-12-26 17:39:03.729Z243.758° WSW17.961°2024-12-26 17:41:03.729Z208.257° SW
11 mins2024-12-27 06:53:03.729Z178.789° S2024-12-27 06:58:03.729Z121.556° SE34.337°2024-12-27 07:04:03.729Z49.993° ENE
10 mins2024-12-27 08:40:03.729Z248.339° W2024-12-27 08:45:03.729Z310.781° NW34.204°2024-12-27 08:50:03.729Z18.673° NNE
|